| time (UTC) | temp C | wind direction | speed KPH | gust KPH | rain 1hr cm | rain 24hr cm | rain mn cm | humidity % | barometer mb |
| 20260510093430 | 8 | 75 | 0.0 | 0.0 | 0.00 | 1.19 | 1.19 | 93 | 1012.3 |
| 20260510092927 | 8 | 60 | 0.0 | 0.0 | 0.00 | 1.19 | 1.19 | 92 | 1012.1 |
| 20260510092425 | 8 | 94 | 1.6 | 1.6 | 0.00 | 1.19 | 1.19 | 92 | 1011.9 |
| 20260510091924 | 8 | 42 | 0.0 | 3.2 | 0.00 | 1.19 | 1.19 | 91 | 1011.9 |
| 20260510091421 | 9 | 55 | 1.6 | 3.2 | 0.00 | 1.19 | 1.19 | 91 | 1011.8 |
| 20260510090918 | 9 | 31 | 1.6 | 1.6 | 0.00 | 1.19 | 1.19 | 90 | 1011.8 |
| 20260510090414 | 9 | 31 | 1.6 | 3.2 | 0.00 | 1.19 | 1.19 | 90 | 1011.7 |
| 20260510085911 | 10 | 36 | 3.2 | 3.2 | 0.00 | 1.19 | 1.19 | 90 | 1011.7 |
| 20260510085406 | 10 | 21 | 3.2 | 3.2 | 0.00 | 1.19 | 1.19 | 91 | 1011.8 |
| 20260510084901 | 10 | 39 | 1.6 | 3.2 | 0.00 | 1.19 | 1.19 | 93 | 1011.6 |
| 20260510084359 | 10 | 233 | 0.0 | 1.6 | 0.00 | 1.19 | 1.19 | 92 | 1011.7 |
| 20260510083855 | 10 | 49 | 0.0 | 0.0 | 0.00 | 1.19 | 1.19 | 92 | 1011.5 |
| 20260510083352 | 10 | 20 | 1.6 | 3.2 | 0.00 | 1.19 | 1.19 | 92 | 1011.4 |
| 20260510082847 | 10 | 359 | 0.0 | 1.6 | 0.00 | 1.19 | 1.19 | 94 | 1011.5 |
| 20260510082345 | 10 | 13 | 1.6 | 3.2 | 0.00 | 1.19 | 1.19 | 95 | 1011.3 |
| 20260510081844 | 10 | 31 | 0.0 | 3.2 | 0.00 | 1.19 | 1.19 | 95 | 1011.5 |
| 20260510081340 | 10 | 7 | 0.0 | 1.6 | 0.00 | 1.19 | 1.19 | 96 | 1011.3 |
| 20260510080837 | 10 | 55 | 0.0 | 1.6 | 0.00 | 1.19 | 1.19 | 96 | 1011.1 |
| 20260510080330 | 10 | 54 | 0.0 | 1.6 | 0.00 | 1.19 | 1.19 | 96 | 1011.3 |
| 20260510075828 | 10 | 127 | 0.0 | 0.0 | 0.00 | 1.19 | 1.19 | 96 | 1011.0 |
| 20260510075325 | 10 | 47 | 0.0 | 1.6 | 0.00 | 1.19 | 1.19 | 97 | 1010.9 |
| 20260510074822 | 10 | 124 | 0.0 | 1.6 | 0.00 | 1.19 | 1.19 | 97 | 1010.9 |
| 20260510074319 | 10 | 66 | 0.0 | 1.6 | 0.00 | 1.19 | 1.19 | 97 | 1010.7 |
| 20260510073815 | 11 | 105 | 1.6 | 3.2 | 0.00 | 1.19 | 1.19 | 97 | 1010.6 |
| 20260510073311 | 11 | 49 | 0.0 | 1.6 | 0.00 | 1.19 | 1.19 | 97 | 1010.5 |
| 20260510072807 | 11 | 102 | 3.2 | 3.2 | 0.00 | 1.19 | 1.19 | 97 | 1010.6 |
| 20260510072306 | 11 | 31 | 3.2 | 3.2 | 0.00 | 1.19 | 1.19 | 97 | 1010.5 |
| 20260510071800 | 11 | 35 | 3.2 | 4.8 | 0.00 | 1.19 | 1.19 | 97 | 1010.2 |
| 20260510071257 | 11 | 38 | 0.0 | 1.6 | 0.00 | 1.19 | 1.19 | 97 | 1010.2 |
| 20260510070756 | 11 | 38 | 3.2 | 3.2 | 0.00 | 1.19 | 1.19 | 98 | 1010.2 |
| 20260510070253 | 11 | 43 | 3.2 | 3.2 | 0.00 | 1.19 | 1.19 | 97 | 1010.4 |
| 20260510065752 | 11 | 33 | 1.6 | 3.2 | 0.00 | 1.19 | 1.19 | 97 | 1010.1 |
| 20260510065249 | 11 | 47 | 0.0 | 1.6 | 0.00 | 1.19 | 1.19 | 97 | 1010.1 |
| 20260510064746 | 12 | 38 | 0.0 | 0.0 | 0.00 | 1.19 | 1.19 | 97 | 1010.0 |
| 20260510064244 | 12 | 33 | 0.0 | 1.6 | 0.00 | 1.19 | 1.19 | 97 | 1010.0 |
| 20260510063739 | 12 | 118 | 0.0 | 1.6 | 0.00 | 1.19 | 1.19 | 97 | 1010.0 |
| 20260510063236 | 12 | 129 | 0.0 | 1.6 | 0.00 | 1.19 | 1.19 | 97 | 1010.1 |
| 20260510062733 | 12 | 141 | 3.2 | 3.2 | 0.00 | 1.19 | 1.19 | 97 | 1010.1 |
| 20260510062229 | 12 | 129 | 0.0 | 3.2 | 0.00 | 1.19 | 1.19 | 97 | 1009.9 |
| 20260510061724 | 12 | 103 | 1.6 | 3.2 | 0.00 | 1.19 | 1.19 | 97 | 1010.1 |
| 20260510061222 | 12 | 141 | 0.0 | 3.2 | 0.00 | 1.19 | 1.19 | 97 | 1010.4 |
| 20260510060718 | 12 | 138 | 4.8 | 4.8 | 0.00 | 1.19 | 1.19 | 97 | 1010.0 |
| 20260510060214 | 12 | 235 | 0.0 | 1.6 | 0.00 | 1.19 | 1.19 | 97 | 1010.0 |
| 20260510055711 | 12 | 144 | 0.0 | 0.0 | 0.00 | 1.19 | 1.19 | 97 | 1009.9 |
| 20260510055209 | 12 | 2 | 0.0 | 4.8 | 0.00 | 1.19 | 1.19 | 97 | 1010.1 |
| 20260510054704 | 12 | 26 | 4.8 | 4.8 | 0.00 | 1.19 | 1.19 | 97 | 1010.1 |
| 20260510054200 | 12 | 10 | 8.0 | 12.9 | 0.00 | 1.19 | 1.19 | 97 | 1010.1 |
| 20260510053700 | 12 | 348 | 8.0 | 8.0 | 0.00 | 1.19 | 1.19 | 97 | 1009.8 |
| 20260510053156 | 12 | 162 | 1.6 | 3.2 | 0.00 | 1.19 | 1.19 | 97 | 1009.0 |
| 20260510052652 | 12 | 157 | 0.0 | 3.2 | 0.00 | 1.19 | 1.19 | 97 | 1008.9 |
| 20260510052148 | 12 | 133 | 1.6 | 3.2 | 0.00 | 1.19 | 1.19 | 96 | 1008.7 |
| 20260510051644 | 12 | 157 | 3.2 | 3.2 | 0.00 | 1.19 | 1.19 | 96 | 1008.7 |
| 20260510051141 | 12 | 182 | 3.2 | 3.2 | 0.00 | 1.19 | 1.19 | 96 | 1008.7 |
| 20260510050638 | 12 | 164 | 3.2 | 6.4 | 0.00 | 1.19 | 1.19 | 96 | 1008.6 |
| 20260510050136 | 12 | 188 | 3.2 | 4.8 | 0.00 | 1.19 | 1.19 | 95 | 1008.5 |
| 20260510045632 | 12 | 193 | 3.2 | 4.8 | 0.00 | 1.19 | 1.19 | 95 | 1008.5 |
| 20260510045129 | 12 | 192 | 4.8 | 6.4 | 0.00 | 1.19 | 1.19 | 95 | 1008.6 |
| 20260510044625 | 12 | 191 | 4.8 | 4.8 | 0.05 | 1.19 | 1.19 | 95 | 1008.5 |
| 20260510044122 | 12 | 167 | 3.2 | 3.2 | 0.00 | 1.19 | 1.19 | 95 | 1008.5 |
| 20260510043618 | 12 | 190 | 4.8 | 4.8 | 0.00 | 1.19 | 1.19 | 95 | 1008.3 |
| 20260510043115 | 12 | 190 | 3.2 | 3.2 | 0.00 | 1.19 | 1.19 | 95 | 1008.2 |
| 20260510042613 | 12 | 130 | 4.8 | 6.4 | 0.05 | 1.19 | 1.19 | 96 | 1008.6 |
| 20260510042108 | 12 | 175 | 1.6 | 8.0 | 0.18 | 1.19 | 1.19 | 97 | 1008.9 |
| 20260510041605 | 12 | 184 | 8.0 | 8.0 | 0.18 | 1.19 | 1.19 | 97 | 1008.9 |
| 20260510041103 | 12 | 200 | 3.2 | 6.4 | 0.13 | 1.17 | 1.17 | 97 | 1008.9 |
| 20260510040559 | 12 | 207 | 6.4 | 8.0 | 0.43 | 1.14 | 1.14 | 98 | 1008.8 |
| 20260510040055 | 12 | 179 | 4.8 | 12.9 | 0.30 | 1.12 | 1.12 | 98 | 1009.2 |
| 20260510035552 | 12 | 224 | 3.2 | 6.4 | 0.05 | 1.07 | 1.07 | 98 | 1009.4 |
| 20260510035051 | 12 | 175 | 6.4 | 6.4 | 0.00 | 1.07 | 1.07 | 98 | 1009.1 |
| 20260510034550 | 12 | 187 | 4.8 | 6.4 | 0.00 | 1.07 | 1.07 | 98 | 1008.8 |
| 20260510034047 | 12 | 206 | 0.0 | 3.2 | 0.00 | 1.07 | 1.07 | 98 | 1008.6 |
| 20260510033543 | 12 | 169 | 0.0 | 3.2 | 0.00 | 1.07 | 1.07 | 98 | 1008.7 |
| 20260510033041 | 12 | 170 | 3.2 | 3.2 | 0.00 | 1.07 | 1.07 | 98 | 1008.5 |
| 20260510032537 | 12 | 177 | 3.2 | 4.8 | 0.00 | 1.07 | 1.07 | 98 | 1008.1 |
| 20260510032032 | 12 | 97 | 3.2 | 3.2 | 0.05 | 1.07 | 1.07 | 98 | 1008.2 |
| 20260510031527 | 12 | 46 | 1.6 | 3.2 | 0.18 | 1.07 | 1.07 | 98 | 1008.4 |
| 20260510031023 | 12 | 124 | 1.6 | 3.2 | 0.23 | 1.07 | 1.07 | 98 | 1008.6 |
| 20260510030519 | 12 | 6 | 3.2 | 6.4 | 0.43 | 1.04 | 1.04 | 98 | 1009.3 |
| 20260510030017 | 12 | 262 | 3.2 | 12.9 | 0.43 | 1.02 | 1.02 | 98 | 1009.7 |
| 20260510025513 | 12 | 251 | 6.4 | 6.4 | 0.18 | 0.97 | 0.97 | 98 | 1009.3 |
| 20260510025011 | 12 | 249 | 3.2 | 4.8 | 0.00 | 0.94 | 0.94 | 98 | 1008.9 |
| 20260510024508 | 12 | 72 | 0.0 | 3.2 | 0.00 | 0.94 | 0.94 | 98 | 1008.2 |
| 20260510024004 | 11 | 156 | 3.2 | 3.2 | 0.00 | 0.94 | 0.94 | 98 | 1008.4 |
| 20260510023500 | 11 | 131 | 0.0 | 3.2 | 0.00 | 0.94 | 0.94 | 98 | 1008.4 |
| 20260510022957 | 11 | 186 | 0.0 | 0.0 | 0.00 | 0.94 | 0.94 | 97 | 1008.3 |
| 20260510022456 | 11 | 224 | 0.0 | 0.0 | 0.00 | 0.94 | 0.94 | 97 | 1008.3 |
| 20260510021955 | 11 | 211 | 1.6 | 1.6 | 0.00 | 0.94 | 0.94 | 97 | 1008.3 |
| 20260510021453 | 11 | 136 | 0.0 | 1.6 | 0.00 | 0.94 | 0.94 | 97 | 1008.2 |
| 20260510020951 | 11 | 147 | 0.0 | 1.6 | 0.00 | 0.94 | 0.94 | 97 | 1008.2 |
| 20260510020450 | 12 | 145 | 0.0 | 3.2 | 0.00 | 0.94 | 0.94 | 97 | 1008.4 |
| 20260510015946 | 12 | 150 | 1.6 | 3.2 | 0.00 | 0.94 | 0.94 | 97 | 1008.4 |
| 20260510015442 | 12 | 137 | 0.0 | 3.2 | 0.00 | 0.94 | 0.94 | 97 | 1008.5 |
| 20260510014937 | 12 | 32 | 0.0 | 1.6 | 0.00 | 0.94 | 0.94 | 96 | 1008.5 |
| 20260510014436 | 12 | 117 | 1.6 | 3.2 | 0.00 | 0.94 | 0.94 | 97 | 1008.2 |
| 20260510013932 | 12 | 73 | 1.6 | 3.2 | 0.00 | 0.94 | 0.94 | 96 | 1008.4 |
| 20260510013426 | 12 | 65 | 1.6 | 1.6 | 0.00 | 0.94 | 0.94 | 96 | 1008.3 |
| 20260510012922 | 12 | 89 | 0.0 | 3.2 | 0.00 | 0.94 | 0.94 | 96 | 1008.2 |
| 20260510012417 | 12 | 109 | 1.6 | 3.2 | 0.00 | 0.94 | 0.94 | 96 | 1008.3 |
| 20260510011912 | 12 | 107 | 0.0 | 0.0 | 0.00 | 0.94 | 0.94 | 96 | 1007.9 |
| 20260510011408 | 12 | 117 | 0.0 | 3.2 | 0.00 | 0.94 | 0.94 | 96 | 1007.9 |
| 20260510010904 | 12 | 145 | 1.6 | 4.8 | 0.00 | 0.94 | 0.94 | 96 | 1007.9 |
| 20260510010401 | 12 | 128 | 0.0 | 3.2 | 0.00 | 0.94 | 0.94 | 96 | 1007.5 |
| 20260510005858 | 12 | 119 | 0.0 | 3.2 | 0.00 | 0.94 | 0.94 | 95 | 1007.5 |
| 20260510005354 | 12 | 113 | 0.0 | 1.6 | 0.00 | 0.94 | 0.94 | 95 | 1007.5 |
| 20260510004852 | 12 | 103 | 0.0 | 0.0 | 0.00 | 0.94 | 0.94 | 95 | 1007.7 |
| 20260510004349 | 12 | 130 | 0.0 | 1.6 | 0.00 | 0.94 | 0.94 | 95 | 1007.5 |
| 20260510003847 | 12 | 135 | 0.0 | 3.2 | 0.00 | 0.94 | 0.94 | 95 | 1007.4 |
| 20260510003343 | 12 | 235 | 0.0 | 6.4 | 0.05 | 0.94 | 0.94 | 95 | 1007.5 |
| 20260510002842 | 12 | 181 | 3.2 | 3.2 | 0.05 | 0.94 | 0.94 | 96 | 1007.7 |
| 20260510002339 | 12 | 186 | 1.6 | 3.2 | 0.00 | 0.94 | 0.94 | 96 | 1007.7 |
| 20260510001836 | 12 | 188 | 0.0 | 3.2 | 0.00 | 0.94 | 0.94 | 95 | 1007.7 |
| 20260510001334 | 12 | 167 | 3.2 | 3.2 | 0.13 | 0.94 | 0.94 | 95 | 1007.7 |
| 20260510000830 | 12 | 243 | 0.0 | 3.2 | 0.18 | 0.91 | 0.91 | 95 | 1007.7 |
| 20260510000328 | 12 | 343 | 0.0 | 4.8 | 0.30 | 0.91 | 0.91 | 94 | 1007.7 |
| 20260509235824 | 12 | 229 | 1.6 | 3.2 | 0.79 | 0.89 | 0.89 | 94 | 1007.8 |
| 20260509235321 | 12 | 7 | 1.6 | 6.4 | 1.63 | 0.86 | 0.86 | 93 | 1008.1 |
| 20260509234817 | 12 | 320 | 1.6 | 6.4 | 1.45 | 0.74 | 0.74 | 92 | 1008.0 |
| 20260509234314 | 12 | 342 | 3.2 | 6.4 | 2.03 | 0.58 | 0.58 | 91 | 1007.8 |
| 20260509233812 | 12 | 352 | 3.2 | 12.9 | 2.87 | 0.51 | 0.51 | 87 | 1007.2 |
| 20260509233309 | 14 | 48 | 6.4 | 14.5 | 1.14 | 0.20 | 0.20 | 81 | 1007.1 |
| 20260509232805 | 17 | 308 | 4.8 | 17.7 | 0.00 | 0.00 | 0.00 | 68 | 1007.2 |
| 20260509232306 | 18 | 5 | 3.2 | 4.8 | 0.00 | 0.00 | 0.00 | 59 | 1005.8 |
| 20260509231759 | 19 | 178 | 4.8 | 9.7 | 0.00 | 0.00 | 0.00 | 56 | 1005.0 |
| 20260509231256 | 19 | 169 | 6.4 | 12.9 | 0.00 | 0.00 | 0.00 | 55 | 1005.2 |
| 20260509230754 | 19 | 168 | 3.2 | 6.4 | 0.00 | 0.00 | 0.00 | 56 | 1005.4 |
| 20260509230250 | 19 | 163 | 6.4 | 6.4 | 0.00 | 0.00 | 0.00 | 56 | 1005.3 |
| 20260509225745 | 20 | 238 | 3.2 | 25.7 | 0.00 | 0.00 | 0.00 | 54 | 1005.5 |
| 20260509225242 | 20 | 303 | 4.8 | 6.4 | 0.00 | 0.00 | 0.00 | 54 | 1005.2 |
| 20260509224737 | 20 | 155 | 6.4 | 11.3 | 0.00 | 0.00 | 0.00 | 53 | 1005.2 |
| 20260509224235 | 20 | 182 | 1.6 | 6.4 | 0.00 | 0.00 | 0.00 | 55 | 1005.1 |
| 20260509223732 | 20 | 186 | 3.2 | 4.8 | 0.00 | 0.00 | 0.00 | 53 | 1005.2 |
| 20260509223229 | 20 | 272 | 4.8 | 14.5 | 0.00 | 0.00 | 0.00 | 53 | 1004.9 |
| 20260509222725 | 20 | 200 | 8.0 | 16.1 | 0.00 | 0.00 | 0.00 | 51 | 1005.0 |
| 20260509222221 | 20 | 180 | 3.2 | 3.2 | 0.00 | 0.00 | 0.00 | 52 | 1005.1 |
| 20260509221716 | 20 | 217 | 4.8 | 12.9 | 0.00 | 0.00 | 0.00 | 53 | 1004.9 |
| 20260509221213 | 21 | 259 | 3.2 | 8.0 | 0.00 | 0.00 | 0.00 | 49 | 1005.0 |
| 20260509220709 | 21 | 186 | 3.2 | 8.0 | 0.00 | 0.00 | 0.00 | 48 | 1005.0 |
| 20260509220206 | 21 | 302 | 4.8 | 9.7 | 0.00 | 0.00 | 0.00 | 48 | 1004.9 |
| 20260509215701 | 21 | 212 | 6.4 | 12.9 | 0.00 | 0.00 | 0.00 | 47 | 1005.0 |
| 20260509215158 | 21 | 200 | 6.4 | 9.7 | 0.00 | 0.00 | 0.00 | 48 | 1004.8 |
| 20260509214655 | 21 | 202 | 11.3 | 17.7 | 0.00 | 0.00 | 0.00 | 50 | 1004.8 |
| 20260509214152 | 21 | 207 | 4.8 | 9.7 | 0.00 | 0.00 | 0.00 | 50 | 1004.7 |
| 20260509213649 | 21 | 139 | 11.3 | 17.7 | 0.00 | 0.00 | 0.00 | 51 | 1004.9 |
| 20260509213144 | 21 | 189 | 4.8 | 8.0 | 0.00 | 0.00 | 0.00 | 51 | 1004.9 |
| 20260509212642 | 21 | 201 | 6.4 | 17.7 | 0.00 | 0.00 | 0.00 | 50 | 1005.1 |
| 20260509212139 | 21 | 284 | 11.3 | 14.5 | 0.00 | 0.00 | 0.00 | 51 | 1005.2 |
| 20260509211635 | 21 | 120 | 6.4 | 11.3 | 0.00 | 0.00 | 0.00 | 50 | 1005.2 |
| 20260509211132 | 21 | 230 | 6.4 | 14.5 | 0.00 | 0.00 | 0.00 | 52 | 1005.4 |
| 20260509210629 | 21 | 177 | 4.8 | 14.5 | 0.00 | 0.00 | 0.00 | 50 | 1005.2 |
| 20260509210126 | 21 | 68 | 1.6 | 11.3 | 0.00 | 0.00 | 0.00 | 52 | 1005.3 |
| 20260509205620 | 21 | 140 | 6.4 | 8.0 | 0.00 | 0.00 | 0.00 | 52 | 1005.5 |
| 20260509205115 | 21 | 265 | 3.2 | 9.7 | 0.00 | 0.00 | 0.00 | 54 | 1005.4 |
| 20260509204611 | 20 | 155 | 14.5 | 19.3 | 0.00 | 0.00 | 0.00 | 52 | 1005.5 |
| 20260509204108 | 20 | 215 | 4.8 | 12.9 | 0.00 | 0.00 | 0.00 | 54 | 1006.0 |
| 20260509203604 | 21 | 169 | 8.0 | 14.5 | 0.00 | 0.00 | 0.00 | 55 | 1005.7 |
| 20260509203103 | 20 | 132 | 8.0 | 16.1 | 0.00 | 0.00 | 0.00 | 52 | 1005.6 |
| 20260509202602 | 20 | 275 | 8.0 | 11.3 | 0.00 | 0.00 | 0.00 | 53 | 1005.6 |
| 20260509202059 | 20 | 255 | 4.8 | 8.0 | 0.00 | 0.00 | 0.00 | 52 | 1005.9 |
| 20260509201558 | 20 | 264 | 6.4 | 11.3 | 0.00 | 0.00 | 0.00 | 53 | 1005.7 |
| 20260509201057 | 20 | 236 | 8.0 | 17.7 | 0.00 | 0.00 | 0.00 | 53 | 1005.8 |
| 20260509200556 | 20 | 152 | 6.4 | 9.7 | 0.00 | 0.00 | 0.00 | 54 | 1005.9 |
| 20260509200053 | 20 | 194 | 6.4 | 8.0 | 0.00 | 0.00 | 0.00 | 55 | 1006.0 |
| 20260509195548 | 20 | 189 | 6.4 | 16.1 | 0.00 | 0.00 | 0.00 | 55 | 1006.0 |
| 20260509195043 | 20 | 149 | 6.4 | 20.9 | 0.00 | 0.00 | 0.00 | 54 | 1006.3 |
| 20260509194538 | 20 | 232 | 9.7 | 11.3 | 0.00 | 0.00 | 0.00 | 56 | 1006.4 |
| 20260509194036 | 19 | 112 | 3.2 | 12.9 | 0.00 | 0.00 | 0.00 | 58 | 1006.7 |
| 20260509193536 | 20 | 149 | 6.4 | 17.7 | 0.00 | 0.00 | 0.00 | 56 | 1006.6 |
| 20260509193033 | 19 | 212 | 6.4 | 11.3 | 0.00 | 0.00 | 0.00 | 56 | 1006.7 |
| 20260509192530 | 20 | 188 | 3.2 | 12.9 | 0.00 | 0.00 | 0.00 | 53 | 1006.8 |
| 20260509192025 | 19 | 168 | 8.0 | 24.1 | 0.00 | 0.00 | 0.00 | 55 | 1006.7 |
| 20260509191519 | 20 | 289 | 8.0 | 14.5 | 0.00 | 0.00 | 0.00 | 54 | 1006.8 |
| 20260509191015 | 19 | 34 | 4.8 | 17.7 | 0.00 | 0.00 | 0.00 | 55 | 1007.0 |
| 20260509190513 | 19 | 149 | 9.7 | 16.1 | 0.00 | 0.00 | 0.00 | 55 | 1006.8 |
| 20260509190010 | 19 | 180 | 6.4 | 17.7 | 0.00 | 0.00 | 0.00 | 57 | 1006.8 |
| 20260509185507 | 19 | 164 | 8.0 | 9.7 | 0.00 | 0.00 | 0.00 | 60 | 1006.9 |
| 20260509185004 | 20 | 161 | 6.4 | 11.3 | 0.00 | 0.00 | 0.00 | 57 | 1007.2 |
| 20260509184503 | 20 | 228 | 6.4 | 9.7 | 0.00 | 0.00 | 0.00 | 61 | 1006.9 |
| 20260509183958 | 19 | 136 | 9.7 | 17.7 | 0.00 | 0.00 | 0.00 | 57 | 1007.0 |
| 20260509183452 | 19 | 190 | 12.9 | 19.3 | 0.00 | 0.00 | 0.00 | 58 | 1007.1 |
| 20260509182949 | 19 | 124 | 9.7 | 11.3 | 0.00 | 0.00 | 0.00 | 57 | 1006.9 |
| 20260509182445 | 19 | 271 | 3.2 | 6.4 | 0.00 | 0.00 | 0.00 | 58 | 1007.1 |
| 20260509181943 | 19 | 259 | 6.4 | 9.7 | 0.00 | 0.00 | 0.00 | 61 | 1007.2 |
| 20260509181441 | 18 | 169 | 3.2 | 14.5 | 0.00 | 0.00 | 0.00 | 61 | 1007.2 |
| 20260509180939 | 19 | 211 | 6.4 | 9.7 | 0.00 | 0.00 | 0.00 | 61 | 1007.4 |
| 20260509180434 | 19 | 282 | 4.8 | 12.9 | 0.00 | 0.00 | 0.00 | 59 | 1007.1 |
| 20260509175931 | 18 | 163 | 9.7 | 12.9 | 0.00 | 0.00 | 0.00 | 58 | 1007.1 |
| 20260509175427 | 18 | 210 | 6.4 | 17.7 | 0.00 | 0.00 | 0.00 | 63 | 1007.3 |
| 20260509174923 | 18 | 271 | 8.0 | 9.7 | 0.00 | 0.00 | 0.00 | 60 | 1007.1 |
| 20260509174419 | 18 | 161 | 11.3 | 16.1 | 0.00 | 0.00 | 0.00 | 60 | 1007.2 |
| 20260509173916 | 18 | 305 | 3.2 | 12.9 | 0.00 | 0.00 | 0.00 | 62 | 1007.1 |
| 20260509173415 | 18 | 218 | 6.4 | 16.1 | 0.00 | 0.00 | 0.00 | 59 | 1007.0 |
| 20260509172912 | 18 | 157 | 1.6 | 6.4 | 0.00 | 0.00 | 0.00 | 64 | 1007.0 |
| 20260509172409 | 18 | 249 | 4.8 | 9.7 | 0.00 | 0.00 | 0.00 | 68 | 1007.1 |
| 20260509171904 | 18 | 230 | 4.8 | 11.3 | 0.00 | 0.00 | 0.00 | 64 | 1007.2 |
| 20260509171400 | 18 | 59 | 3.2 | 8.0 | 0.00 | 0.00 | 0.00 | 67 | 1007.1 |
| 20260509170857 | 17 | 191 | 4.8 | 9.7 | 0.00 | 0.00 | 0.00 | 65 | 1007.2 |
| 20260509170353 | 17 | 223 | 0.0 | 9.7 | 0.00 | 0.00 | 0.00 | 69 | 1007.2 |
| 20260509165848 | 16 | 158 | 6.4 | 11.3 | 0.00 | 0.00 | 0.00 | 70 | 1007.3 |
| 20260509165342 | 17 | 128 | 4.8 | 9.7 | 0.00 | 0.00 | 0.00 | 69 | 1007.2 |
| 20260509164839 | 17 | 206 | 4.8 | 9.7 | 0.00 | 0.00 | 0.00 | 68 | 1007.5 |
| 20260509164335 | 17 | 183 | 3.2 | 12.9 | 0.00 | 0.00 | 0.00 | 68 | 1007.8 |
| 20260509163831 | 17 | 252 | 3.2 | 3.2 | 0.00 | 0.00 | 0.00 | 69 | 1007.4 |
| 20260509163328 | 17 | 138 | 6.4 | 12.9 | 0.00 | 0.00 | 0.00 | 68 | 1007.5 |
| 20260509162828 | 17 | 240 | 8.0 | 8.0 | 0.00 | 0.00 | 0.00 | 74 | 1007.8 |
| 20260509162325 | 16 | 250 | 4.8 | 9.7 | 0.00 | 0.00 | 0.00 | 73 | 1007.9 |
| 20260509161822 | 16 | 155 | 11.3 | 20.9 | 0.00 | 0.00 | 0.00 | 75 | 1008.0 |
| 20260509161319 | 16 | 268 | 3.2 | 8.0 | 0.00 | 0.00 | 0.00 | 76 | 1007.9 |
| 20260509160814 | 16 | 159 | 9.7 | 12.9 | 0.00 | 0.00 | 0.00 | 74 | 1008.0 |
| 20260509160310 | 16 | 284 | 3.2 | 11.3 | 0.00 | 0.00 | 0.00 | 78 | 1007.9 |
| 20260509155806 | 16 | 262 | 6.4 | 6.4 | 0.00 | 0.00 | 0.00 | 81 | 1007.9 |
| 20260509155306 | 15 | 141 | 6.4 | 6.4 | 0.00 | 0.00 | 0.00 | 82 | 1007.9 |
| 20260509154758 | 16 | 199 | 6.4 | 6.4 | 0.00 | 0.00 | 0.00 | 83 | 1007.7 |
| 20260509154256 | 15 | 209 | 4.8 | 6.4 | 0.00 | 0.00 | 0.00 | 82 | 1008.1 |
| 20260509153753 | 15 | 287 | 0.0 | 9.7 | 0.00 | 0.00 | 0.00 | 85 | 1007.7 |
| 20260509153248 | 15 | 131 | 4.8 | 11.3 | 0.00 | 0.00 | 0.00 | 84 | 1007.8 |
| 20260509152745 | 14 | 258 | 3.2 | 8.0 | 0.00 | 0.00 | 0.00 | 86 | 1008.1 |
| 20260509152242 | 14 | 147 | 0.0 | 4.8 | 0.00 | 0.00 | 0.00 | 88 | 1007.8 |
| 20260509151739 | 14 | 275 | 3.2 | 3.2 | 0.00 | 0.00 | 0.00 | 88 | 1008.0 |
| 20260509151235 | 14 | 273 | 6.4 | 17.7 | 0.00 | 0.00 | 0.00 | 87 | 1008.0 |
| 20260509150734 | 14 | 258 | 3.2 | 6.4 | 0.00 | 0.00 | 0.00 | 88 | 1008.0 |
| 20260509150232 | 14 | 142 | 6.4 | 8.0 | 0.00 | 0.00 | 0.00 | 91 | 1007.9 |
| 20260509145728 | 13 | 137 | 1.6 | 4.8 | 0.00 | 0.00 | 0.00 | 93 | 1008.0 |
| 20260509145222 | 13 | 127 | 4.8 | 6.4 | 0.00 | 0.00 | 0.00 | 94 | 1008.0 |
| 20260509144719 | 13 | 127 | 3.2 | 6.4 | 0.00 | 0.00 | 0.00 | 95 | 1008.1 |
| 20260509144216 | 12 | 124 | 0.0 | 3.2 | 0.00 | 0.00 | 0.00 | 95 | 1007.9 |
| 20260509143714 | 12 | 199 | 0.0 | 8.0 | 0.00 | 0.00 | 0.00 | 96 | 1007.8 |
| 20260509143211 | 12 | 204 | 0.0 | 3.2 | 0.00 | 0.00 | 0.00 | 96 | 1007.9 |
| 20260509142706 | 12 | 134 | 3.2 | 6.4 | 0.00 | 0.00 | 0.00 | 97 | 1008.0 |
| 20260509142203 | 12 | 215 | 3.2 | 3.2 | 0.00 | 0.00 | 0.00 | 97 | 1007.9 |
| 20260509141659 | 12 | 288 | 4.8 | 4.8 | 0.00 | 0.00 | 0.00 | 98 | 1007.9 |
| 20260509141156 | 12 | 118 | 3.2 | 4.8 | 0.00 | 0.00 | 0.00 | 98 | 1007.7 |
| 20260509140652 | 12 | 111 | 0.0 | 3.2 | 0.00 | 0.00 | 0.00 | 98 | 1007.9 |
| 20260509140150 | 12 | 159 | 0.0 | 1.6 | 0.00 | 0.00 | 0.00 | 98 | 1007.9 |
| 20260509135647 | 12 | 119 | 0.0 | 3.2 | 0.00 | 0.00 | 0.00 | 99 | 1007.8 |
| 20260509135146 | 11 | 129 | 6.4 | 6.4 | 0.00 | 0.00 | 0.00 | 99 | 1008.0 |
| 20260509134641 | 11 | 140 | 3.2 | 6.4 | 0.00 | 0.00 | 0.00 | 99 | 1008.0 |
| 20260509134139 | 11 | 131 | 0.0 | 3.2 | 0.00 | 0.00 | 0.00 | 99 | 1007.9 |
| 20260509133636 | 11 | 130 | 0.0 | 1.6 | 0.00 | 0.00 | 0.00 | 99 | 1007.8 |
| 20260509133133 | 11 | 150 | 1.6 | 3.2 | 0.00 | 0.00 | 0.00 | 99 | 1008.0 |
| 20260509132631 | 11 | 83 | 1.6 | 4.8 | 0.00 | 0.00 | 0.00 | 99 | 1008.0 |
| 20260509132130 | 11 | 137 | 1.6 | 8.0 | 0.00 | 0.00 | 0.00 | 99 | 1008.0 |
| 20260509131625 | 11 | 126 | 3.2 | 3.2 | 0.00 | 0.00 | 0.00 | 99 | 1008.1 |
| 20260509131123 | 11 | 149 | 6.4 | 6.4 | 0.00 | 0.00 | 0.00 | 99 | 1008.2 |
| 20260509130618 | 11 | 133 | 3.2 | 4.8 | 0.00 | 0.00 | 0.00 | 99 | 1008.1 |
| 20260509130115 | 11 | 160 | 3.2 | 3.2 | 0.00 | 0.00 | 0.00 | 99 | 1008.1 |
| 20260509125611 | 11 | 106 | 3.2 | 4.8 | 0.00 | 0.00 | 0.00 | 99 | 1008.1 |
| 20260509125108 | 11 | 118 | 3.2 | 4.8 | 0.00 | 0.00 | 0.00 | 99 | 1008.1 |
| 20260509124605 | 11 | 140 | 1.6 | 3.2 | 0.00 | 0.00 | 0.00 | 99 | 1008.2 |
| 20260509124102 | 11 | 62 | 0.0 | 4.8 | 0.00 | 0.00 | 0.00 | 99 | 1008.1 |
| 20260509123600 | 11 | 112 | 4.8 | 4.8 | 0.00 | 0.00 | 0.00 | 99 | 1008.3 |
| 20260509123056 | 11 | 84 | 1.6 | 3.2 | 0.00 | 0.00 | 0.00 | 99 | 1008.3 |
| 20260509122552 | 11 | 149 | 3.2 | 6.4 | 0.00 | 0.00 | 0.00 | 99 | 1008.3 |
| 20260509122050 | 11 | 146 | 1.6 | 4.8 | 0.05 | 0.00 | 0.00 | 99 | 1008.4 |
| 20260509121546 | 11 | 99 | 3.2 | 3.2 | 0.05 | 0.00 | 0.00 | 99 | 1008.3 |
| 20260509121048 | 10 | 75 | 3.2 | 3.2 | 0.00 | 0.00 | 0.00 | 99 | 1008.2 |
| 20260509120542 | 10 | 130 | 4.8 | 6.4 | 0.00 | 0.00 | 0.00 | 99 | 1008.3 |
| 20260509120040 | 10 | 120 | 3.2 | 6.4 | 0.00 | 1.60 | 1.60 | 99 | 1008.4 |
| 20260509115536 | 10 | 149 | 3.2 | 6.4 | 0.00 | 1.60 | 1.60 | 99 | 1008.4 |
| 20260509115034 | 10 | 136 | 4.8 | 4.8 | 0.00 | 1.60 | 1.60 | 99 | 1008.3 |
| 20260509114532 | 10 | 125 | 3.2 | 3.2 | 0.00 | 1.60 | 1.60 | 99 | 1008.4 |
| 20260509114031 | 10 | 137 | 1.6 | 3.2 | 0.00 | 1.60 | 1.60 | 99 | 1008.4 |
| 20260509113529 | 10 | 143 | 1.6 | 3.2 | 0.00 | 1.60 | 1.60 | 99 | 1008.5 |
| 20260509113026 | 10 | 164 | 0.0 | 4.8 | 0.00 | 1.60 | 1.60 | 99 | 1008.4 |
| 20260509112522 | 10 | 141 | 1.6 | 4.8 | 0.00 | 1.60 | 1.60 | 99 | 1008.5 |
| 20260509112019 | 10 | 126 | 3.2 | 4.8 | 0.00 | 1.60 | 1.60 | 99 | 1008.2 |
| 20260509111517 | 10 | 138 | 1.6 | 6.4 | 0.00 | 1.60 | 1.60 | 99 | 1008.4 |
| 20260509111014 | 10 | 139 | 4.8 | 6.4 | 0.00 | 1.60 | 1.60 | 99 | 1008.1 |
| 20260509110510 | 10 | 165 | 3.2 | 3.2 | 0.00 | 1.60 | 1.60 | 99 | 1008.3 |
| 20260509110007 | 10 | 134 | 4.8 | 4.8 | 0.00 | 1.60 | 1.60 | 99 | 1008.1 |
| 20260509105506 | 10 | 136 | 6.4 | 6.4 | 0.00 | 1.60 | 1.60 | 99 | 1008.0 |
| 20260509105003 | 10 | 117 | 3.2 | 6.4 | 0.00 | 1.60 | 1.60 | 99 | 1008.1 |
| 20260509104459 | 10 | 191 | 1.6 | 4.8 | 0.00 | 1.60 | 1.60 | 99 | 1008.0 |
| 20260509103957 | 10 | 102 | 3.2 | 4.8 | 0.00 | 1.60 | 1.60 | 99 | 1008.2 |
| 20260509103454 | 10 | 118 | 3.2 | 4.8 | 0.00 | 1.60 | 1.60 | 99 | 1008.2 |
| 20260509102952 | 10 | 127 | 3.2 | 6.4 | 0.00 | 1.60 | 1.60 | 99 | 1008.1 |
| 20260509102449 | 10 | 97 | 3.2 | 4.8 | 0.00 | 1.60 | 1.60 | 99 | 1008.3 |
| 20260509101945 | 10 | 97 | 0.0 | 3.2 | 0.00 | 1.60 | 1.60 | 99 | 1008.3 |
| 20260509101442 | 10 | 134 | 3.2 | 6.4 | 0.05 | 1.60 | 1.60 | 99 | 1008.1 |
| 20260509100939 | 10 | 123 | 3.2 | 6.4 | 0.05 | 1.60 | 1.60 | 99 | 1008.1 |
| 20260509100437 | 10 | 141 | 3.2 | 3.2 | 0.05 | 1.60 | 1.60 | 99 | 1008.3 |
| 20260509095933 | 10 | 143 | 3.2 | 3.2 | 0.13 | 1.60 | 1.60 | 99 | 1008.3 |
| 20260509095430 | 10 | 105 | 3.2 | 4.8 | 0.05 | 1.57 | 1.57 | 99 | 1008.1 |
| 20260509094927 | 10 | 128 | 4.8 | 6.4 | 0.13 | 1.57 | 1.57 | 99 | 1008.3 |
| 20260509094424 | 10 | 112 | 3.2 | 4.8 | 0.05 | 1.57 | 1.57 | 99 | 1008.3 |
| 20260509093922 | 10 | 113 | 4.8 | 8.0 | 0.05 | 1.55 | 1.55 | 99 | 1008.4 |